Decatur, IL

10:42 AM CDT on May 25, 2018 (GMT -0500)
Decatur

Weather History for KDEC - December, 2011

Change the Weather History Date:

Sunday, December 25, 2011

  Actual Average Record
Temperature  
Mean Temperature 39 °F 29 °F  
Max Temperature 47 °F 37 °F 55 °F (2016)
Min Temperature 30 °F 21 °F -7 °F (1999)
Degree Days  
Heating Degree Days 26 36  
Month to date heating degree days 701 837  
Since 1 July heating degree days 1618 1918  
Cooling Degree Days 0 0  
Month to date cooling degree days 0 0  
Year to date cooling degree days 1327 1048  
Moisture  
Dew Point 28 °F    
Average Humidity 69    
Maximum Humidity 85    
Minimum Humidity 53    
Precipitation  
Precipitation 0.00 in 0.09 in 0.19 in (2016)
Month to date precipitation 1.67 2.00  
Year to date precipitation 34.16 37.91  
Sea Level Pressure  
Sea Level Pressure 30.29 in    
Wind  
Wind Speed 11 mph (West)    
Max Wind Speed 22 mph    
Max Gust Speed 30 mph    
Visibility 10 miles    
Events      
T = Trace of Precipitation, MM = Missing Value Source: NWS Daily Summary

Daily Weather History Graph

Daily Weather History Graph

Search for Another Location

Airport or City:

Astronomy

Dec. 25, 2011 Rise Set
Actual Time 7:14 AM CST 4:36 PM CST
Civil Twilight 6:44 AM CST 5:06 PM CST
Nautical Twilight 6:10 AM CST 5:40 PM CST
Astronomical Twilight 5:37 AM CST 6:13 PM CST
Moon 7:53 AM CST 5:56 PM CST
Length of Visible Light 10h 22m
Length of Day
9h 21m
New Moon, 1% of the Moon is Illuminated
Dec 25
New Moon
Jan 1
First Quarter
Jan 9
Full
Jan 16
Last Quarter
Jan 23
New

Hourly Weather History & Observations

Time (CST) Temp. Windchill Dew Point Humidity Pressure Visibility Wind Dir Wind Speed Gust Speed Precip Events Conditions
12:54 AM 32.0 °F 24.2 °F 26.1 °F 79% 30.29 in 10.0 mi SW 9.2 mph - N/A   Clear
1:54 AM 34.0 °F 26.6 °F 26.1 °F 73% 30.28 in 10.0 mi WSW 9.2 mph - N/A   Clear
2:54 AM 35.1 °F 26.9 °F 26.1 °F 70% 30.27 in 10.0 mi WSW 11.5 mph - N/A   Clear
3:54 AM 34.0 °F 26.0 °F 27.0 °F 75% 30.25 in 10.0 mi WSW 10.4 mph - N/A   Clear
4:54 AM 30.9 °F 23.5 °F 26.1 °F 82% 30.24 in 10.0 mi SW 8.1 mph - N/A   Clear
5:54 AM 33.1 °F 24.4 °F 27.0 °F 78% 30.24 in 10.0 mi WSW 11.5 mph - N/A   Clear
6:54 AM 33.1 °F 23.4 °F 27.0 °F 78% 30.23 in 10.0 mi WSW 13.8 mph - N/A   Clear
7:54 AM 33.1 °F 23.9 °F 27.0 °F 78% 30.23 in 10.0 mi WSW 12.7 mph - N/A   Clear
8:54 AM 36.0 °F 27.5 °F 28.0 °F 73% 30.25 in 10.0 mi West 12.7 mph - N/A   Clear
9:54 AM 39.0 °F 32.3 °F 28.9 °F 67% 30.26 in 10.0 mi West 10.4 mph - N/A   Clear
10:54 AM 43.0 °F 35.4 °F 28.0 °F 56% 30.25 in 10.0 mi West 16.1 mph - N/A   Clear
11:54 AM 44.1 °F 36.8 °F 30.0 °F 58% 30.25 in 10.0 mi WNW 16.1 mph 26.5 mph N/A   Clear
12:54 PM 46.0 °F 39.0 °F 30.0 °F 54% 30.26 in 10.0 mi WNW 17.3 mph 29.9 mph N/A   Clear
1:54 PM 46.9 °F - 30.9 °F 54% 30.26 in 10.0 mi NW 15.0 mph 23.0 mph N/A   Clear
2:54 PM 46.0 °F 39.3 °F 30.9 °F 56% 30.28 in 10.0 mi WNW 16.1 mph 23.0 mph N/A   Clear
3:54 PM 45.0 °F 38.2 °F 30.9 °F 58% 30.31 in 10.0 mi WNW 15.0 mph - N/A   Clear
4:54 PM 42.1 °F 36.6 °F 32.0 °F 67% 30.32 in 10.0 mi WNW 9.2 mph - N/A   Clear
5:54 PM 41.0 °F 35.2 °F 30.0 °F 65% 30.35 in 10.0 mi WNW 9.2 mph - N/A   Clear
6:54 PM 39.0 °F 32.3 °F 30.0 °F 70% 30.37 in 10.0 mi WNW 10.4 mph - N/A   Clear
7:54 PM 39.0 °F 32.8 °F 28.9 °F 67% 30.37 in 10.0 mi WNW 9.2 mph - N/A   Clear
8:54 PM 37.4 °F 32.8 °F 28.4 °F 70% 30.35 in 10.0 mi West 5.8 mph - N/A   Clear
9:54 PM 33.1 °F 27.7 °F 28.0 °F 82% 30.38 in 10.0 mi WSW 5.8 mph - N/A   Clear
10:54 PM 36.0 °F 33.3 °F 28.0 °F 73% 30.39 in 10.0 mi West 3.5 mph - N/A   Clear
11:54 PM 33.1 °F 27.7 °F 27.0 °F 78% 30.38 in 10.0 mi West 5.8 mph - N/A   Clear